TimeCDT,TemperatureF,Dew PointF,Humidity,Sea Level PressureIn,VisibilityMPH,Wind Direction,Wind SpeedMPH,Gust SpeedMPH,PrecipitationIn,Events,Conditions,WindDirDegrees,DateUTC
12:53 AM,39.0,28.0,65,30.08,10.0,WNW,3.5,-,N/A,,Clear,290,2012-10-02 05:53:00
1:53 AM,37.0,28.9,73,30.08,10.0,Calm,Calm,-,N/A,,Clear,0,2012-10-02 06:53:00
2:53 AM,32.0,27.0,82,30.07,10.0,Calm,Calm,-,N/A,,Clear,0,2012-10-02 07:53:00
3:53 AM,30.9,26.1,82,30.06,10.0,Calm,Calm,-,N/A,,Clear,0,2012-10-02 08:53:00
4:53 AM,30.0,25.0,82,30.05,10.0,Calm,Calm,-,N/A,,Clear,0,2012-10-02 09:53:00
5:53 AM,28.0,24.1,85,30.05,10.0,Calm,Calm,-,N/A,,Clear,0,2012-10-02 10:53:00
6:53 AM,28.0,24.1,85,30.06,10.0,WNW,3.5,-,N/A,,Clear,290,2012-10-02 11:53:00
7:53 AM,26.6,23.0,86,30.03,10.0,WNW,3.5,-,N/A,,Clear,290,2012-10-02 12:53:00
8:53 AM,37.0,28.9,73,30.06,10.0,Calm,Calm,-,N/A,,Clear,0,2012-10-02 13:53:00
9:53 AM,48.0,34.0,58,30.03,10.0,Calm,Calm,-,N/A,,Clear,0,2012-10-02 14:53:00
10:53 AM,63.0,28.0,27,29.99,10.0,SSW,12.7,-,N/A,,Clear,210,2012-10-02 15:53:00
11:53 AM,66.0,28.9,25,29.96,10.0,SSW,17.3,-,N/A,,Clear,200,2012-10-02 16:53:00
12:53 PM,70.0,28.9,22,29.93,10.0,SW,13.8,20.7,N/A,,Clear,220,2012-10-02 17:53:00
1:53 PM,73.0,28.9,20,29.89,10.0,South,12.7,-,N/A,,Clear,180,2012-10-02 18:53:00
2:53 PM,75.0,28.9,18,29.86,10.0,South,12.7,-,N/A,,Clear,170,2012-10-02 19:53:00
3:53 PM,75.9,27.0,16,29.83,10.0,South,10.4,-,N/A,,Clear,170,2012-10-02 20:53:00
4:53 PM,77.0,25.0,15,29.82,10.0,SSW,11.5,-,N/A,,Clear,200,2012-10-02 21:53:00
5:53 PM,75.9,25.0,15,29.82,10.0,South,13.8,18.4,N/A,,Clear,190,2012-10-02 22:53:00
6:53 PM,72.0,25.0,17,29.82,10.0,SSE,8.1,-,N/A,,Clear,160,2012-10-02 23:53:00
7:53 PM,64.9,27.0,24,29.85,10.0,SSE,6.9,-,N/A,,Clear,160,2012-10-03 00:53:00
8:53 PM,55.9,27.0,33,29.84,10.0,South,4.6,-,N/A,,Clear,180,2012-10-03 01:53:00
9:53 PM,59.0,28.0,31,29.84,10.0,South,3.5,-,N/A,,Clear,170,2012-10-03 02:53:00
10:53 PM,52.0,30.0,43,29.84,10.0,Calm,Calm,-,N/A,,Clear,0,2012-10-03 03:53:00
11:53 PM,46.9,30.9,54,29.84,10.0,East,5.8,-,N/A,,Clear,100,2012-10-03 04:53:00